DLH39V EPWA-EDDF

Flight info

Callsign DLH39V
Flight time N/A
Altitude 38000
Route LOLSI DCT DIBLO DCT INDIG DCT KORUP DCT SULED DCT ROBEL/N0371F240 T178 KERAX KERAX5D
Aircraft A319/M-SDE3FGHIRWY/LB1

Departure

Time 2026-04-30 18:59
Airport Warsaw Chopin Airport (EPWA)

Arrival

Time N/A
Airport Frankfurt Main Airport (EDDF)
Time Latitude Longitude Altitude Speed Heading
2026-04-30 17:39 52.16881 20.97260 339 ft 0 kts 74°
2026-04-30 18:49 52.16880 20.97254 339 ft 2 kts 75°
2026-04-30 18:49 52.16876 20.97230 339 ft 2 kts 75°
2026-04-30 18:50 52.16872 20.97206 338 ft 2 kts 75°
2026-04-30 18:50 52.16868 20.97183 338 ft 2 kts 75°
2026-04-30 18:50 52.16864 20.97159 337 ft 2 kts 75°
2026-04-30 18:50 52.16863 20.97135 336 ft 2 kts 100°
2026-04-30 18:51 52.16867 20.97112 335 ft 1 kts 118°
2026-04-30 18:51 52.16875 20.97094 335 ft 2 kts 136°
2026-04-30 18:51 52.16882 20.97084 335 ft 0 kts 148°
2026-04-30 18:51 52.16888 20.97078 335 ft 0 kts 150°
2026-04-30 18:52 52.16888 20.97079 335 ft 0 kts 150°
2026-04-30 18:53 52.16875 20.97090 335 ft 4 kts 149°
2026-04-30 18:54 52.16845 20.97119 336 ft 5 kts 149°
2026-04-30 18:54 52.16807 20.97156 336 ft 7 kts 149°
2026-04-30 18:54 52.16711 20.97240 337 ft 20 kts 152°
2026-04-30 18:54 52.16645 20.97300 337 ft 0 kts 150°
2026-04-30 18:55 52.16643 20.97302 337 ft 2 kts 150°
2026-04-30 18:55 52.16556 20.97437 337 ft 16 kts 114°
2026-04-30 18:55 52.16501 20.97635 337 ft 20 kts 113°
2026-04-30 18:56 52.16409 20.97800 335 ft 0 kts 192°
2026-04-30 18:56 52.16359 20.97768 334 ft 13 kts 202°
2026-04-30 18:57 52.16306 20.97667 333 ft 0 kts 296°
2026-04-30 18:58 52.16310 20.97653 333 ft 14 kts 295°
2026-04-30 18:58 52.16469 20.97088 335 ft 92 kts 295°
2026-04-30 18:58 52.16826 20.95800 360 ft 152 kts 295°
2026-04-30 18:59 52.17756 20.92546 1603 ft 162 kts 297°
2026-04-30 19:00 52.18239 20.86867 3471 ft 199 kts 269°
2026-04-30 19:00 52.18191 20.84858 3936 ft 213 kts 274°
2026-04-30 19:00 52.18223 20.80546 4811 ft 246 kts 275°
2026-04-30 19:01 52.18247 20.74645 6304 ft 270 kts 275°
2026-04-30 19:01 52.18245 20.71557 7229 ft 274 kts 275°
2026-04-30 19:02 52.18236 20.65305 8938 ft 285 kts 275°
2026-04-30 19:02 52.18220 20.58760 10534 ft 298 kts 276°
2026-04-30 19:03 52.18200 20.51676 11714 ft 326 kts 276°
2026-04-30 19:03 52.18164 20.44214 13320 ft 335 kts 276°
2026-04-30 19:04 52.18126 20.36537 14800 ft 345 kts 276°
2026-04-30 19:04 52.18081 20.28585 16192 ft 355 kts 276°
2026-04-30 19:05 52.18032 20.20482 17497 ft 365 kts 276°
2026-04-30 19:05 52.17976 20.12082 18583 ft 380 kts 276°
2026-04-30 19:06 52.17904 20.03339 19736 ft 390 kts 277°
2026-04-30 19:06 52.17867 19.98927 20313 ft 395 kts 277°
2026-04-30 19:06 52.17778 19.89890 21397 ft 405 kts 276°
2026-04-30 19:07 52.17228 19.80688 22571 ft 417 kts 270°
2026-04-30 19:07 52.16810 19.76007 23084 ft 421 kts 270°
2026-04-30 19:08 52.15933 19.66482 24150 ft 428 kts 270°
2026-04-30 19:08 52.15056 19.56866 25121 ft 436 kts 270°
2026-04-30 19:08 52.14611 19.51984 25572 ft 440 kts 270°
2026-04-30 19:09 52.13704 19.42105 26507 ft 447 kts 270°
2026-04-30 19:09 52.13237 19.37045 26924 ft 451 kts 270°
2026-04-30 19:09 52.12766 19.31974 27343 ft 455 kts 269°
2026-04-30 19:10 52.11818 19.21804 28164 ft 461 kts 269°
2026-04-30 19:10 52.10836 19.11431 28992 ft 466 kts 269°
2026-04-30 19:11 52.10339 19.06208 29327 ft 470 kts 269°
2026-04-30 19:11 52.09328 18.95672 30060 ft 476 kts 270°
2026-04-30 19:11 52.08815 18.90375 30414 ft 479 kts 269°
2026-04-30 19:12 52.08296 18.85037 30751 ft 482 kts 269°
2026-04-30 19:12 52.07762 18.79590 31124 ft 483 kts 270°
2026-04-30 19:12 52.07236 18.74204 31474 ft 485 kts 270°
2026-04-30 19:13 52.06171 18.63421 32248 ft 486 kts 269°
2026-04-30 19:13 52.05093 18.52663 33083 ft 484 kts 269°
2026-04-30 19:13 52.04549 18.47282 33499 ft 483 kts 270°
2026-04-30 19:14 52.04007 18.41912 33922 ft 481 kts 269°
2026-04-30 19:14 52.03466 18.36574 34294 ft 480 kts 269°
2026-04-30 19:14 52.02923 18.31231 34621 ft 481 kts 269°
2026-04-30 19:14 52.02373 18.25855 34878 ft 482 kts 269°
2026-04-30 19:15 52.01823 18.20506 35198 ft 481 kts 268°
2026-04-30 19:15 52.00717 18.09849 35889 ft 476 kts 268°
2026-04-30 19:15 52.00166 18.04601 36192 ft 474 kts 268°
2026-04-30 19:16 51.99614 17.99353 36503 ft 472 kts 267°
2026-04-30 19:16 51.99043 17.94130 36840 ft 471 kts 267°
2026-04-30 19:16 51.97862 17.83685 37403 ft 471 kts 267°
2026-04-30 19:17 51.97270 17.78482 37631 ft 472 kts 266°
2026-04-30 19:17 51.96067 17.67989 38051 ft 473 kts 266°
2026-04-30 19:17 51.95469 17.62794 38270 ft 473 kts 266°
2026-04-30 19:18 51.94662 17.55804 38376 ft 474 kts 266°
2026-04-30 19:18 51.93682 17.47387 38368 ft 474 kts 266°
2026-04-30 19:19 51.92457 17.36939 38386 ft 474 kts 266°
2026-04-30 19:19 51.90598 17.21233 38388 ft 474 kts 265°
2026-04-30 19:20 51.89341 17.10723 38390 ft 474 kts 265°
2026-04-30 19:21 51.87445 16.95020 38380 ft 474 kts 265°
2026-04-30 19:22 51.84900 16.74218 38373 ft 473 kts 265°
2026-04-30 19:23 51.80959 16.42579 38375 ft 491 kts 265°
2026-04-30 19:24 51.78889 16.26275 38386 ft 500 kts 264°
2026-04-30 19:25 51.75335 15.98781 38394 ft 502 kts 264°
2026-04-30 19:26 51.72463 15.76882 38400 ft 501 kts 263°
2026-04-30 19:27 51.70273 15.60451 38394 ft 498 kts 264°
2026-04-30 19:28 51.68076 15.44105 38394 ft 499 kts 264°
2026-04-30 19:29 51.65107 15.22335 38390 ft 499 kts 263°
2026-04-30 19:30 51.62098 15.00614 38396 ft 497 kts 263°
2026-04-30 19:31 51.59059 14.78987 38401 ft 497 kts 262°
2026-04-30 19:31 51.56646 14.62846 38408 ft 497 kts 261°
2026-04-30 19:32 51.54941 14.52118 38410 ft 496 kts 261°
2026-04-30 19:32 51.53237 14.41412 38409 ft 496 kts 261°
2026-04-30 19:33 51.51514 14.30615 38413 ft 496 kts 260°
2026-04-30 19:33 51.49804 14.19960 38409 ft 496 kts 260°
2026-04-30 19:34 51.48084 14.09317 38414 ft 495 kts 260°
2026-04-30 19:35 51.45481 13.93326 38413 ft 495 kts 260°
2026-04-30 19:35 51.43725 13.82629 38414 ft 495 kts 260°
2026-04-30 19:36 51.41974 13.72009 38414 ft 495 kts 260°
2026-04-30 19:36 51.39330 13.56116 38416 ft 494 kts 260°
2026-04-30 19:37 51.37545 13.45480 38415 ft 495 kts 260°
2026-04-30 19:37 51.35759 13.34891 38414 ft 495 kts 259°
2026-04-30 19:38 51.33959 13.24287 38415 ft 495 kts 259°
2026-04-30 19:38 51.32149 13.13687 38407 ft 496 kts 259°
2026-04-30 19:39 51.30330 13.03103 38398 ft 495 kts 259°
2026-04-30 19:39 51.28502 12.92532 38404 ft 495 kts 259°
2026-04-30 19:40 51.26658 12.81979 38034 ft 496 kts 257°
2026-04-30 19:40 51.25574 12.76780 37712 ft 498 kts 255°
2026-04-30 19:40 51.24371 12.71540 37378 ft 498 kts 253°
2026-04-30 19:41 51.23166 12.66402 37061 ft 498 kts 253°
2026-04-30 19:41 51.21961 12.61268 36755 ft 498 kts 253°
2026-04-30 19:41 51.20750 12.56072 36509 ft 498 kts 254°
2026-04-30 19:41 51.19561 12.50943 36266 ft 498 kts 254°
2026-04-30 19:42 51.18360 12.45744 36019 ft 499 kts 254°
2026-04-30 19:42 51.17164 12.40569 35773 ft 499 kts 254°
2026-04-30 19:42 51.15973 12.35429 35561 ft 498 kts 254°
2026-04-30 19:42 51.14780 12.30287 35386 ft 498 kts 253°
2026-04-30 19:43 51.13578 12.25117 35217 ft 498 kts 253°
2026-04-30 19:43 51.12379 12.19969 35069 ft 498 kts 253°
2026-04-30 19:43 51.11171 12.14796 34923 ft 498 kts 253°
2026-04-30 19:44 51.08772 12.04556 34647 ft 496 kts 253°
2026-04-30 19:44 51.07569 11.99437 34491 ft 496 kts 252°
2026-04-30 19:44 51.06356 11.94299 34346 ft 496 kts 253°
2026-04-30 19:44 51.05150 11.89199 34210 ft 497 kts 252°
2026-04-30 19:45 51.03922 11.84011 34100 ft 497 kts 252°
2026-04-30 19:45 51.01497 11.73815 33948 ft 498 kts 252°
2026-04-30 19:46 50.99033 11.63497 33605 ft 499 kts 252°
2026-04-30 19:46 50.97817 11.58420 33343 ft 500 kts 252°
2026-04-30 19:46 50.96585 11.53291 33078 ft 500 kts 252°
2026-04-30 19:46 50.95331 11.48081 32809 ft 501 kts 252°
2026-04-30 19:47 50.94099 11.42975 32547 ft 502 kts 252°
2026-04-30 19:47 50.93267 11.39536 32321 ft 503 kts 252°
2026-04-30 19:47 50.91612 11.32715 31717 ft 493 kts 251°
2026-04-30 19:47 50.90383 11.27670 31266 ft 485 kts 251°
2026-04-30 19:48 50.89197 11.22812 30823 ft 477 kts 251°
2026-04-30 19:48 50.88001 11.17920 30368 ft 470 kts 251°
2026-04-30 19:48 50.86843 11.13188 29915 ft 463 kts 251°
2026-04-30 19:48 50.85680 11.08445 29454 ft 456 kts 251°
2026-04-30 19:49 50.84553 11.03853 29076 ft 450 kts 251°
2026-04-30 19:49 50.82291 10.94673 28162 ft 444 kts 251°
2026-04-30 19:49 50.81180 10.90180 27708 ft 441 kts 251°
2026-04-30 19:50 50.80074 10.85712 27254 ft 438 kts 251°
2026-04-30 19:50 50.78965 10.81251 26800 ft 436 kts 251°
2026-04-30 19:50 50.77857 10.76796 26340 ft 433 kts 251°
2026-04-30 19:50 50.76752 10.72368 25886 ft 430 kts 251°
2026-04-30 19:51 50.75667 10.68026 25434 ft 427 kts 251°
2026-04-30 19:51 50.74588 10.63710 24984 ft 425 kts 250°
2026-04-30 19:51 50.73502 10.59376 24532 ft 422 kts 250°
2026-04-30 19:51 50.72419 10.55068 24083 ft 419 kts 250°
2026-04-30 19:52 50.71350 10.50821 23637 ft 416 kts 250°
2026-04-30 19:52 50.70303 10.46670 23070 ft 416 kts 250°
2026-04-30 19:52 50.69226 10.42401 22332 ft 420 kts 250°
2026-04-30 19:52 50.68144 10.38127 21822 ft 417 kts 250°
2026-04-30 19:53 50.67087 10.33966 21321 ft 414 kts 249°
2026-04-30 19:53 50.66055 10.29904 20826 ft 411 kts 249°
2026-04-30 19:53 50.64991 10.25726 20316 ft 408 kts 249°
2026-04-30 19:53 50.63943 10.21616 19815 ft 405 kts 249°
2026-04-30 19:54 50.62902 10.17549 19312 ft 403 kts 249°
2026-04-30 19:54 50.61866 10.13501 18810 ft 401 kts 249°
2026-04-30 19:54 50.60826 10.09450 18307 ft 398 kts 249°
2026-04-30 19:54 50.59798 10.05443 17810 ft 396 kts 249°
2026-04-30 19:55 50.58768 10.01437 17314 ft 394 kts 249°
2026-04-30 19:55 50.57744 9.97465 16816 ft 392 kts 249°
2026-04-30 19:55 50.56739 9.93571 16328 ft 390 kts 249°
2026-04-30 19:55 50.55724 9.89645 15835 ft 389 kts 248°
2026-04-30 19:56 50.54709 9.85728 15340 ft 387 kts 248°
2026-04-30 19:56 50.53688 9.81798 14843 ft 385 kts 248°
2026-04-30 19:56 50.52684 9.77939 14351 ft 383 kts 248°
2026-04-30 19:56 50.51681 9.74092 13857 ft 381 kts 248°
2026-04-30 19:57 50.50677 9.70244 13362 ft 378 kts 248°
2026-04-30 19:57 50.49687 9.66460 12874 ft 376 kts 248°
2026-04-30 19:57 50.48708 9.62729 12386 ft 373 kts 248°
2026-04-30 19:57 50.47737 9.58963 11889 ft 370 kts 249°
2026-04-30 19:58 50.46927 9.55150 11394 ft 367 kts 253°
2026-04-30 19:58 50.46207 9.51355 10900 ft 364 kts 254°
2026-04-30 19:58 50.45507 9.47592 10405 ft 361 kts 254°
2026-04-30 19:58 50.44804 9.43821 9903 ft 358 kts 253°
2026-04-30 19:59 50.43957 9.40230 9409 ft 354 kts 245°
2026-04-30 19:59 50.42910 9.36827 8916 ft 351 kts 242°
2026-04-30 19:59 50.40939 9.30717 8350 ft 334 kts 241°